STARLINK-4739 (53792 NORAD) Tracking and Keplerian Element Data

This shows tracking and keplerian element data for the satellite.

Feedback or suggestion? Click here.




ElementValue
Catalog53792
NameSTARLINK-4739
Epoch Orbit130
Epoch Day324.91667824
Epoch Year2022
RAAN282.3662
Inclination53.2175
Eccentricity0.0001828
Argument of Perigee46.3247
Mean Anonmoly144.9214
Mean Motion15.12194169
Decay Rate-0.01146019
L11 53792U 22111V 22324.91667824 -.01146019 00000+0 -71258-1 0 9996
L22 53792 53.2175 282.3662 0001828 46.3247 144.9214 15.12194169 1303



Live tracking and technical data element details for STARLINK-4739 (NORAD 53792). STARLINK-4739 can be tracked NOW for your location showing map with azimuth and elevation plus other details from your city location.







IsCatalogInMostPopularTable: catalog: 53792, numindb: -1

Insert: records affected: 1


GetName: 53792 STARLINK-4739

Hit Count: inserted at: Thu, 08 Dec 2022 10:19:20 GMT